Weather in Prestwick

United Kingdom     55°29′51″N   4°36′38″W
temp.,
°C
wind,
m/s
gust,
m/s
humid.,
%
clouds,
%
prec.,
mm/h
press.,
hPa
HPBL,
m
18 august, thu
thu1801:00+13sse248588 0.0 1014109
04:00+12sse2887100 0.0 1013244
07:00+14s51188100 0.3 1011727
10:00+14ssw61282100 0.1 1010748
13:00+18ssw7107480 0.2 10081104
16:00+18ssw71077100 0.5 1007881
19:00+16sw8119399 1.8 1006685
22:00+11wsw35900 0.3 100996
19 august, fri
fri1901:00+10sw49900 0.4 1009235
04:00+10ssw511926 0.1 1009341
07:00+10ssw4109351 0.1 1010341
10:00+13sw698686 0.3 1011885
13:00+16sw79666 0.8 10121195
16:00+17sw6860100 0.4 10121245
19:00+14sw488311 1.4 1012371
22:00+10s33925 0.4 101348
20 august, sat
sat2001:00+9sse4119173 0.4 1011231
04:00+12ssw71594100 0.1 1009745
07:00+13ssw9158986 0.2 1008856
10:00+15sw10158768 2.2 10071199
13:00+13wsw4997100 13.6 1009573
16:00+14sw7108797 3.6 1009890
19:00+14wsw478760 4.3 1009525
22:00+9sw228514 0.1 101023
21 august, sun
sun2101:00+10ssw239042 0.1 101076
04:00+8ssw229310 0.0 101029
07:00+9ssw349543 0.0 101182
10:00+13wsw578470 0.3 1012910
13:00+15wsw687679 0.9 10141188
16:00+16w686314 0.3 10151384
19:00+14w4675100 0.3 1016456
22:00+11s2188100 0.0 101616
22 august, mon
mon2201:00+9sse229197 0.0 101617
04:00+9ese2285100 0.0 101625
07:00+11e2385100 0.0 101569
10:00+14ese3680100 0.1 1014305
13:00+14se3676100 0.1 1013329
16:00+12e3590100 0.9 1013178
19:00+13e1188100 0.9 101330
22:00+13ene1189100 0.0 101419